Hourly Weather Elabuga

Today, 11 August, Tuesday

Time Temperature Precipitation Wind Pressure Humidity
00:00 +11°C° 0 mm 3 mps 746 mmHg 83%
01:00 +10°C° 0 mm 3 mps 746 mmHg 86%
02:00 +10°C° 0 mm 3 mps 746 mmHg 88%
03:00 +9°C° 0 mm 3 mps 746 mmHg 91%
04:00 +10°C° 0 mm 3 mps 746 mmHg 88%
05:00 +11°C° 0 mm 3 mps 746 mmHg 84%
06:00 +12°C° 0 mm 3 mps 747 mmHg 81%
07:00 +13°C° 0 mm 4 mps 747 mmHg 75%
08:00 +15°C° 0 mm 4 mps 747 mmHg 69%
09:00 +18°C° 0 mm 4 mps 747 mmHg 63%
10:00 +19°C° 0 mm 4 mps 747 mmHg 60%
11:00 +19°C° 0 mm 4 mps 747 mmHg 57%
12:00 +20°C° 0 mm 4 mps 747 mmHg 54%
13:00 +20°C° 0 mm 4 mps 747 mmHg 54%
14:00 +21°C° 0 mm 4 mps 747 mmHg 54%
15:00 +21°C° 0 mm 3 mps 747 mmHg 53%
16:00 +20°C° 0 mm 3 mps 747 mmHg 59%
17:00 +19°C° 0 mm 2 mps 747 mmHg 65%
18:00 +18°C° 0 mm 2 mps 747 mmHg 70%
19:00 +17°C° 0 mm 2 mps 747 mmHg 74%
20:00 +15°C° 0 mm 1 mps 747 mmHg 77%
21:00 +14°C° 0 mm 1 mps 747 mmHg 80%
22:00 +13°C° 0 mm 1 mps 747 mmHg 81%
23:00 +13°C° 0 mm 1 mps 747 mmHg 82%

Tomorrow, 12 August, Wednesday

Time Temperature Precipitation Wind Pressure Humidity
00:00 +13°C° 0 mm 1 mps 748 mmHg 84%
01:00 +12°C° 0 mm 1 mps 748 mmHg 84%
02:00 +12°C° 0 mm 1 mps 748 mmHg 85%
03:00 +12°C° 0 mm 1 mps 748 mmHg 85%
04:00 +12°C° 0 mm 0 mps 748 mmHg 83%
05:00 +12°C° 0 mm 0 mps 748 mmHg 81%
06:00 +13°C° 0 mm 0 mps 748 mmHg 78%
07:00 +15°C° 0 mm 0 mps 748 mmHg 74%
08:00 +18°C° 0 mm 1 mps 748 mmHg 70%
09:00 +20°C° 0 mm 1 mps 748 mmHg 65%
10:00 +20°C° 0 mm 1 mps 748 mmHg 62%
11:00 +21°C° 0 mm 1 mps 748 mmHg 58%
12:00 +22°C° 0 mm 1 mps 748 mmHg 55%
13:00 +22°C° 0 mm 1 mps 748 mmHg 56%
14:00 +22°C° 0 mm 1 mps 748 mmHg 57%
15:00 +22°C° 0 mm 1 mps 748 mmHg 57%
16:00 +21°C° 0 mm 1 mps 748 mmHg 63%
17:00 +20°C° 0 mm 1 mps 748 mmHg 69%
18:00 +19°C° 0 mm 1 mps 747 mmHg 75%
19:00 +18°C° 0 mm 1 mps 747 mmHg 76%
20:00 +17°C° 0 mm 2 mps 748 mmHg 77%
21:00 +16°C° 0 mm 2 mps 748 mmHg 79%
22:00 +16°C° 0 mm 2 mps 748 mmHg 78%
23:00 +16°C° 0 mm 2 mps 748 mmHg 76%

Day after tomorrow, 13 August, Thursday

Time Temperature Precipitation Wind Pressure Humidity
00:00 +16°C° 0 mm 3 mps 748 mmHg 75%
01:00 +14°C° 0 mm 3 mps 748 mmHg 76%
02:00 +14°C° 0 mm 3 mps 747 mmHg 76%
03:00 +14°C° 0 mm 3 mps 747 mmHg 77%
04:00 +14°C° 0.2 mm 3 mps 747 mmHg 79%
05:00 +13°C° 0.2 mm 3 mps 747 mmHg 82%
06:00 +13°C° 0.2 mm 3 mps 747 mmHg 84%
07:00 +14°C° 0.1 mm 4 mps 747 mmHg 83%
08:00 +14°C° 0.1 mm 4 mps 747 mmHg 82%
09:00 +14°C° 0.1 mm 4 mps 747 mmHg 81%
10:00 +15°C° 0 mm 5 mps 746 mmHg 77%
11:00 +17°C° 0 mm 5 mps 746 mmHg 73%
12:00 +19°C° 0 mm 6 mps 746 mmHg 70%
13:00 +19°C° 0.4 mm 5 mps 746 mmHg 72%
14:00 +19°C° 0.4 mm 5 mps 745 mmHg 73%
15:00 +19°C° 0.4 mm 4 mps 745 mmHg 75%
16:00 +18°C° 2 mm 4 mps 745 mmHg 81%
17:00 +17°C° 2 mm 4 mps 744 mmHg 86%
18:00 +15°C° 2 mm 4 mps 744 mmHg 92%
19:00 +15°C° 1.6 mm 4 mps 744 mmHg 92%
20:00 +14°C° 1.6 mm 5 mps 744 mmHg 93%
21:00 +14°C° 1.6 mm 5 mps 743 mmHg 93%
22:00 +14°C° 2.5 mm 5 mps 743 mmHg 94%
23:00 +14°C° 2.5 mm 5 mps 743 mmHg 95%

14 August, Friday

Time Temperature Precipitation Wind Pressure Humidity
00:00 +13°C° 2.5 mm 5 mps 743 mmHg 96%
01:00 +13°C° 1.2 mm 5 mps 742 mmHg 96%
02:00 +13°C° 1.2 mm 5 mps 742 mmHg 96%
03:00 +13°C° 1.2 mm 4 mps 742 mmHg 96%
04:00 +13°C° 0.7 mm 4 mps 742 mmHg 96%
05:00 +13°C° 0.7 mm 4 mps 742 mmHg 96%
06:00 +13°C° 0.7 mm 4 mps 741 mmHg 96%
07:00 +14°C° 0.8 mm 4 mps 741 mmHg 96%
08:00 +14°C° 0.8 mm 4 mps 741 mmHg 95%
09:00 +16°C° 0.8 mm 3 mps 741 mmHg 94%
10:00 +17°C° 1.1 mm 3 mps 741 mmHg 90%
11:00 +18°C° 1.1 mm 3 mps 741 mmHg 86%
12:00 +19°C° 1.1 mm 3 mps 741 mmHg 82%
13:00 +19°C° 1.3 mm 3 mps 741 mmHg 81%
14:00 +19°C° 1.3 mm 3 mps 741 mmHg 80%
15:00 +20°C° 1.3 mm 2 mps 741 mmHg 79%
16:00 +19°C° 0.9 mm 2 mps 741 mmHg 82%
17:00 +18°C° 0.9 mm 2 mps 741 mmHg 85%
18:00 +18°C° 0.9 mm 2 mps 741 mmHg 88%
19:00 +17°C° 0.7 mm 2 mps 741 mmHg 91%
20:00 +15°C° 0.7 mm 2 mps 741 mmHg 93%
21:00 +13°C° 0.7 mm 3 mps 741 mmHg 96%
22:00 +14°C° 0 mm 2 mps 741 mmHg 96%
23:00 +14°C° 0 mm 2 mps 741 mmHg 97%

15 August, Saturday

Time Temperature Precipitation Wind Pressure Humidity
00:00 +14°C° 0 mm 2 mps 741 mmHg 97%
01:00 +14°C° 0 mm 1 mps 741 mmHg 97%
02:00 +14°C° 0 mm 1 mps 741 mmHg 97%
03:00 +14°C° 0 mm 1 mps 741 mmHg 96%
04:00 +14°C° 0 mm 1 mps 741 mmHg 95%
05:00 +14°C° 0 mm 1 mps 741 mmHg 93%
06:00 +15°C° 0 mm 1 mps 741 mmHg 92%
07:00 +15°C° 0.1 mm 1 mps 741 mmHg 88%
08:00 +16°C° 0.1 mm 2 mps 741 mmHg 85%
09:00 +17°C° 0.1 mm 2 mps 741 mmHg 81%
10:00 +17°C° 0.1 mm 2 mps 741 mmHg 78%
11:00 +18°C° 0.1 mm 3 mps 741 mmHg 75%
12:00 +18°C° 0.1 mm 3 mps 741 mmHg 72%
13:00 +19°C° 0 mm 3 mps 741 mmHg 69%
14:00 +19°C° 0 mm 3 mps 741 mmHg 67%
15:00 +19°C° 0 mm 3 mps 741 mmHg 65%
16:00 +19°C° 0.1 mm 2 mps 741 mmHg 70%
17:00 +18°C° 0.1 mm 2 mps 741 mmHg 75%
18:00 +17°C° 0.1 mm 2 mps 741 mmHg 80%
19:00 +16°C° 0 mm 2 mps 741 mmHg 83%
20:00 +16°C° 0 mm 2 mps 741 mmHg 85%
21:00 +15°C° 0 mm 2 mps 741 mmHg 88%
22:00 +14°C° 0.1 mm 2 mps 741 mmHg 90%
23:00 +14°C° 0.1 mm 2 mps 742 mmHg 91%

16 August, Sunday

Time Temperature Precipitation Wind Pressure Humidity
00:00 +14°C° 0.1 mm 2 mps 742 mmHg 93%
01:00 +14°C° 0.2 mm 2 mps 742 mmHg 94%
02:00 +13°C° 0.2 mm 2 mps 742 mmHg 95%
03:00 +13°C° 0.2 mm 2 mps 742 mmHg 96%
04:00 +12°C° 0.2 mm 3 mps 742 mmHg 96%
05:00 +13°C° 0.2 mm 3 mps 742 mmHg 96%
06:00 +13°C° 0.2 mm 3 mps 742 mmHg 95%
07:00 +13°C° 0.1 mm 3 mps 743 mmHg 94%
08:00 +14°C° 0.1 mm 4 mps 743 mmHg 92%
09:00 +14°C° 0.1 mm 4 mps 743 mmHg 91%
10:00 +14°C° 0.2 mm 4 mps 743 mmHg 90%
11:00 +14°C° 0.2 mm 4 mps 743 mmHg 90%
12:00 +15°C° 0.2 mm 5 mps 744 mmHg 89%
13:00 +15°C° 0.1 mm 5 mps 744 mmHg 89%
14:00 +15°C° 0.1 mm 6 mps 744 mmHg 89%
15:00 +15°C° 0.1 mm 6 mps 744 mmHg 88%
16:00 +14°C° 0 mm 6 mps 744 mmHg 88%
17:00 +14°C° 0 mm 6 mps 745 mmHg 88%
18:00 +13°C° 0 mm 6 mps 745 mmHg 89%
19:00 +13°C° 0 mm 5 mps 745 mmHg 89%
20:00 +13°C° 0 mm 5 mps 745 mmHg 90%
21:00 +12°C° 0 mm 5 mps 745 mmHg 91%
22:00 +12°C° 0.2 mm 4 mps 745 mmHg 91%
23:00 +12°C° 0.2 mm 4 mps 745 mmHg 92%
Show more